Вернуться в каталог

COSMOS 249 DEB

АктивенLEO
NORAD 3923·DEBRIS·🇷🇺 Russia

Запущен Oct 20, 1968 с Baikonur Cosmodrome

Loading…

Ближайшие Пролёты (ближайшие 24 часа)

TLE

СвежийSource: Space-Track

Эпоха: Sep 14, 2026, 04:24 UTC

1 03923U 68091BR  26257.18370486  .00000333  00000-0  26662-3 0  9994
2 03923  62.2297 187.8431 0575351 229.2572 125.7131 13.45640240728594

Отслеживайте COSMOS 249 DEB в реальном времени с AllMySat

Download on the App Store